Year,Month,Day,Hour,Minute,Value (Times are PST for windspeed in km/hr)
2012,07,14,00,00,0.20
2012,07,14,00,01,0.00
2012,07,14,00,02,0.00
2012,07,14,00,03,0.00
2012,07,14,00,04,0.00
2012,07,14,00,05,0.70
2012,07,14,00,06,2.20
2012,07,14,00,07,2.30
2012,07,14,00,08,0.40
2012,07,14,00,09,1.90
2012,07,14,00,10,3.70
2012,07,14,00,11,4.00
2012,07,14,00,12,3.20
2012,07,14,00,13,4.10
2012,07,14,00,14,4.60
2012,07,14,00,15,1.40
2012,07,14,00,16,2.80
2012,07,14,00,17,2.10
2012,07,14,00,18,2.80
2012,07,14,00,19,3.90
2012,07,14,00,20,2.60
2012,07,14,00,21,2.60
2012,07,14,00,22,4.70
2012,07,14,00,23,4.00
2012,07,14,00,24,4.70
2012,07,14,00,25,6.50
2012,07,14,00,26,5.80
2012,07,14,00,27,2.30
2012,07,14,00,28,2.10
2012,07,14,00,29,2.50
2012,07,14,00,30,2.30
2012,07,14,00,31,3.70
2012,07,14,00,32,2.80
2012,07,14,00,33,2.70
2012,07,14,00,34,2.60
2012,07,14,00,35,3.00
2012,07,14,00,36,3.90
2012,07,14,00,37,2.10
2012,07,14,00,38,0.20
2012,07,14,00,39,2.60
2012,07,14,00,40,4.10
2012,07,14,00,41,4.50
2012,07,14,00,42,3.40
2012,07,14,00,43,4.00
2012,07,14,00,44,4.00
2012,07,14,00,45,2.80
2012,07,14,00,46,0.90
2012,07,14,00,47,0.00
2012,07,14,00,48,0.10
2012,07,14,00,49,1.50
2012,07,14,00,50,5.70
2012,07,14,00,51,4.70
2012,07,14,00,52,7.00
2012,07,14,00,53,4.70
2012,07,14,00,54,1.50
2012,07,14,00,55,0.60
2012,07,14,00,56,0.00
2012,07,14,00,57,0.00
2012,07,14,00,58,0.00
2012,07,14,00,59,0.00
2012,07,14,01,00,0.00
2012,07,14,01,01,1.50
2012,07,14,01,02,1.80
2012,07,14,01,03,0.60
2012,07,14,01,04,0.20
2012,07,14,01,05,0.00
2012,07,14,01,06,0.00
2012,07,14,01,07,0.00
2012,07,14,01,08,0.00
2012,07,14,01,09,0.00
2012,07,14,01,10,0.00
2012,07,14,01,11,0.00
2012,07,14,01,12,0.00
2012,07,14,01,13,0.00
2012,07,14,01,14,0.00
2012,07,14,01,15,0.10
2012,07,14,01,16,1.20
2012,07,14,01,17,2.80
2012,07,14,01,18,1.10
2012,07,14,01,19,0.60
2012,07,14,01,20,1.40
2012,07,14,01,21,1.30
2012,07,14,01,22,0.80
2012,07,14,01,23,1.90
2012,07,14,01,24,3.10
2012,07,14,01,25,0.30
2012,07,14,01,26,1.10
2012,07,14,01,27,0.60
2012,07,14,01,28,0.20
2012,07,14,01,29,0.60
2012,07,14,01,30,0.60
2012,07,14,01,31,0.60
2012,07,14,01,32,0.20
2012,07,14,01,33,0.00
2012,07,14,01,34,1.20
2012,07,14,01,35,2.70
2012,07,14,01,36,0.80
2012,07,14,01,37,0.20
2012,07,14,01,38,0.50
2012,07,14,01,39,0.70
2012,07,14,01,40,0.00
2012,07,14,01,41,0.00
2012,07,14,01,42,0.40
2012,07,14,01,43,0.50
2012,07,14,01,44,0.00
2012,07,14,01,45,1.80
2012,07,14,01,46,2.60
2012,07,14,01,47,3.60
2012,07,14,01,48,3.00
2012,07,14,01,49,6.30
2012,07,14,01,50,4.80
2012,07,14,01,51,6.00
2012,07,14,01,52,5.60
2012,07,14,01,53,3.30
2012,07,14,01,54,4.80
2012,07,14,01,55,2.70
2012,07,14,01,56,3.40
2012,07,14,01,57,1.00
2012,07,14,01,58,3.80
2012,07,14,01,59,5.40
2012,07,14,02,00,5.10
2012,07,14,02,01,1.80
2012,07,14,02,02,2.40
2012,07,14,02,03,4.70
2012,07,14,02,04,1.80
2012,07,14,02,05,2.10
2012,07,14,02,06,0.30
2012,07,14,02,07,0.40
2012,07,14,02,08,0.20
2012,07,14,02,09,2.20
2012,07,14,02,10,2.20
2012,07,14,02,11,2.60
2012,07,14,02,12,3.30
2012,07,14,02,13,1.90
2012,07,14,02,14,1.20
2012,07,14,02,15,0.70
2012,07,14,02,16,1.60
2012,07,14,02,17,0.00
2012,07,14,02,18,0.00
2012,07,14,02,19,0.00
2012,07,14,02,20,0.00
2012,07,14,02,21,0.00
2012,07,14,02,22,0.00
2012,07,14,02,23,0.00
2012,07,14,02,24,0.00
2012,07,14,02,25,0.00
2012,07,14,02,26,0.00
2012,07,14,02,27,0.90
2012,07,14,02,28,2.90
2012,07,14,02,29,0.30
2012,07,14,02,30,0.00
2012,07,14,02,31,0.00
2012,07,14,02,32,0.60
2012,07,14,02,33,0.00
2012,07,14,02,34,0.00
2012,07,14,02,35,0.00
2012,07,14,02,36,0.00
2012,07,14,02,37,0.00
2012,07,14,02,38,0.00
2012,07,14,02,39,0.00
2012,07,14,02,40,0.00
2012,07,14,02,41,0.00
2012,07,14,02,42,0.00
2012,07,14,02,43,0.00
2012,07,14,02,44,0.00
2012,07,14,02,45,0.00
2012,07,14,02,46,0.00
2012,07,14,02,47,0.00
2012,07,14,02,48,0.00
2012,07,14,02,49,0.00
2012,07,14,02,50,0.00
2012,07,14,02,51,0.20
2012,07,14,02,52,0.00
2012,07,14,02,53,0.40
2012,07,14,02,54,0.00
2012,07,14,02,55,0.20
2012,07,14,02,56,0.00
2012,07,14,02,57,0.20
2012,07,14,02,58,0.10
2012,07,14,02,59,0.00
2012,07,14,03,00,0.60
2012,07,14,03,01,1.50
2012,07,14,03,02,3.30
2012,07,14,03,03,3.10
2012,07,14,03,04,3.50
2012,07,14,03,05,1.90
2012,07,14,03,06,0.00
2012,07,14,03,07,1.10
2012,07,14,03,08,0.80
2012,07,14,03,09,0.00
2012,07,14,03,10,0.00
2012,07,14,03,11,0.00
2012,07,14,03,12,1.90
2012,07,14,03,13,3.50
2012,07,14,03,14,0.60
2012,07,14,03,15,0.00
2012,07,14,03,16,2.40
2012,07,14,03,17,3.10
2012,07,14,03,18,0.60
2012,07,14,03,19,0.00
2012,07,14,03,20,0.00
2012,07,14,03,21,0.60
2012,07,14,03,22,1.10
2012,07,14,03,23,0.30
2012,07,14,03,24,0.00
2012,07,14,03,25,0.00
2012,07,14,03,26,0.60
2012,07,14,03,27,0.20
2012,07,14,03,28,0.00
2012,07,14,03,29,0.40
2012,07,14,03,30,2.40
2012,07,14,03,31,3.40
2012,07,14,03,32,2.00
2012,07,14,03,33,1.30
2012,07,14,03,34,0.10
2012,07,14,03,35,0.00
2012,07,14,03,36,0.00
2012,07,14,03,37,0.00
2012,07,14,03,38,0.00
2012,07,14,03,39,0.00
2012,07,14,03,40,0.00
2012,07,14,03,41,0.00
2012,07,14,03,42,0.00
2012,07,14,03,43,0.00
2012,07,14,03,44,0.00
2012,07,14,03,45,0.00
2012,07,14,03,46,0.00
2012,07,14,03,47,0.00
2012,07,14,03,48,0.00
2012,07,14,03,49,0.00
2012,07,14,03,50,0.00
2012,07,14,03,51,0.00
2012,07,14,03,52,0.00
2012,07,14,03,53,0.00
2012,07,14,03,54,0.00
2012,07,14,03,55,0.00
2012,07,14,03,56,0.00
2012,07,14,03,57,0.00
2012,07,14,03,58,0.00
2012,07,14,03,59,0.00
2012,07,14,04,00,0.00
2012,07,14,04,01,0.00
2012,07,14,04,02,0.00
2012,07,14,04,03,0.00
2012,07,14,04,04,0.00
2012,07,14,04,05,0.00
2012,07,14,04,06,0.90
2012,07,14,04,07,1.30
2012,07,14,04,08,1.40
2012,07,14,04,09,2.30
2012,07,14,04,10,1.10
2012,07,14,04,11,0.40
2012,07,14,04,12,0.10
2012,07,14,04,13,2.00
2012,07,14,04,14,1.50
2012,07,14,04,15,0.40
2012,07,14,04,16,0.00
2012,07,14,04,17,0.00
2012,07,14,04,18,0.00
2012,07,14,04,19,0.00
2012,07,14,04,20,0.00
2012,07,14,04,21,0.00
2012,07,14,04,22,0.60
2012,07,14,04,23,0.00
2012,07,14,04,24,0.00
2012,07,14,04,25,0.00
2012,07,14,04,26,0.00
2012,07,14,04,27,0.20
2012,07,14,04,28,0.00
2012,07,14,04,29,0.00
2012,07,14,04,30,0.00
2012,07,14,04,31,0.00
2012,07,14,04,32,0.00
2012,07,14,04,33,0.00
2012,07,14,04,34,0.00
2012,07,14,04,35,0.00
2012,07,14,04,36,0.00
2012,07,14,04,37,0.00
2012,07,14,04,38,0.00
2012,07,14,04,39,0.00
2012,07,14,04,40,0.00
2012,07,14,04,41,0.00
2012,07,14,04,42,0.40
2012,07,14,04,43,1.10
2012,07,14,04,44,0.50
2012,07,14,04,45,0.60
2012,07,14,04,46,0.00
2012,07,14,04,47,0.10
2012,07,14,04,48,0.00
2012,07,14,04,49,0.00
2012,07,14,04,50,0.00
2012,07,14,04,51,0.00
2012,07,14,04,52,0.00
2012,07,14,04,53,0.00
2012,07,14,04,54,0.00
2012,07,14,04,55,0.30
2012,07,14,04,56,1.90
2012,07,14,04,57,1.00
2012,07,14,04,58,1.10
2012,07,14,04,59,0.00
2012,07,14,05,00,0.00
2012,07,14,05,01,0.00
2012,07,14,05,02,0.10
2012,07,14,05,03,0.00
2012,07,14,05,04,0.00
2012,07,14,05,05,0.00
2012,07,14,05,06,0.00
2012,07,14,05,07,0.00
2012,07,14,05,08,0.00
2012,07,14,05,09,0.00
2012,07,14,05,10,0.00
2012,07,14,05,11,0.00
2012,07,14,05,12,0.00
2012,07,14,05,13,0.00
2012,07,14,05,14,0.00
2012,07,14,05,15,0.00
2012,07,14,05,16,0.00
2012,07,14,05,17,0.40
2012,07,14,05,18,1.20
2012,07,14,05,19,0.00
2012,07,14,05,20,0.00
2012,07,14,05,21,0.00
2012,07,14,05,22,0.00
2012,07,14,05,23,0.00
2012,07,14,05,24,0.00
2012,07,14,05,25,0.30
2012,07,14,05,26,0.00
2012,07,14,05,27,0.00
2012,07,14,05,28,0.00
2012,07,14,05,29,0.00
2012,07,14,05,30,0.00
2012,07,14,05,31,0.00
2012,07,14,05,32,0.00
2012,07,14,05,33,0.00
2012,07,14,05,34,0.00
2012,07,14,05,35,0.00
2012,07,14,05,36,0.00
2012,07,14,05,37,0.40
2012,07,14,05,38,0.60
2012,07,14,05,39,0.00
2012,07,14,05,40,0.10
2012,07,14,05,41,0.00
2012,07,14,05,42,0.00
2012,07,14,05,43,0.00
2012,07,14,05,44,0.00
2012,07,14,05,45,0.30
2012,07,14,05,46,2.10
2012,07,14,05,47,2.10
2012,07,14,05,48,0.90
2012,07,14,05,49,0.60
2012,07,14,05,50,0.20
2012,07,14,05,51,0.90
2012,07,14,05,52,1.90
2012,07,14,05,53,1.90
2012,07,14,05,54,0.80
2012,07,14,05,55,0.00
2012,07,14,05,56,0.00
2012,07,14,05,57,0.00
2012,07,14,05,58,0.30
2012,07,14,05,59,0.80
2012,07,14,06,00,1.90
2012,07,14,06,01,3.60
2012,07,14,06,02,2.70
2012,07,14,06,03,3.50
2012,07,14,06,04,1.60
2012,07,14,06,05,0.80
2012,07,14,06,06,1.00
2012,07,14,06,07,0.50
2012,07,14,06,08,1.20
2012,07,14,06,09,0.90
2012,07,14,06,10,0.00
2012,07,14,06,11,0.00
2012,07,14,06,12,0.50
2012,07,14,06,13,0.60
2012,07,14,06,14,1.00
2012,07,14,06,15,1.40
2012,07,14,06,16,1.40
2012,07,14,06,17,0.70
2012,07,14,06,18,1.80
2012,07,14,06,19,2.00
2012,07,14,06,20,1.20
2012,07,14,06,21,1.60
2012,07,14,06,22,0.90
2012,07,14,06,23,0.00
2012,07,14,06,24,0.70
2012,07,14,06,25,0.20
2012,07,14,06,26,0.00
2012,07,14,06,27,0.20
2012,07,14,06,28,0.00
2012,07,14,06,29,0.00
2012,07,14,06,30,0.20
2012,07,14,06,31,0.30
2012,07,14,06,32,0.00
2012,07,14,06,33,0.00
2012,07,14,06,34,0.90
2012,07,14,06,35,0.30
2012,07,14,06,36,0.70
2012,07,14,06,37,1.50
2012,07,14,06,38,1.10
2012,07,14,06,39,2.50
2012,07,14,06,40,0.60
2012,07,14,06,41,0.10
2012,07,14,06,42,0.00
2012,07,14,06,43,0.00
2012,07,14,06,44,0.00
2012,07,14,06,45,0.00
2012,07,14,06,46,0.00
2012,07,14,06,47,0.00
2012,07,14,06,48,0.00
2012,07,14,06,49,0.10
2012,07,14,06,50,0.50
2012,07,14,06,51,1.20
2012,07,14,06,52,0.80
2012,07,14,06,53,0.80
2012,07,14,06,54,1.70
2012,07,14,06,55,2.40
2012,07,14,06,56,1.30
2012,07,14,06,57,1.50
2012,07,14,06,58,1.60
2012,07,14,06,59,2.20
2012,07,14,07,00,2.60
2012,07,14,07,01,1.70
2012,07,14,07,02,3.70
2012,07,14,07,03,2.90
2012,07,14,07,04,3.00
2012,07,14,07,05,1.90
2012,07,14,07,06,3.20
2012,07,14,07,07,2.50
2012,07,14,07,08,3.60
2012,07,14,07,09,3.60
2012,07,14,07,10,1.20
2012,07,14,07,11,3.40
2012,07,14,07,12,1.10
2012,07,14,07,13,0.60
2012,07,14,07,14,0.00
2012,07,14,07,15,0.00
2012,07,14,07,16,0.00
2012,07,14,07,17,0.00
2012,07,14,07,18,0.00
2012,07,14,07,19,0.00
2012,07,14,07,20,0.00
2012,07,14,07,21,0.00
2012,07,14,07,22,0.00
2012,07,14,07,23,0.30
2012,07,14,07,24,1.90
2012,07,14,07,25,0.20
2012,07,14,07,26,0.00
2012,07,14,07,27,0.00
2012,07,14,07,28,0.00
2012,07,14,07,29,0.00
2012,07,14,07,30,0.00
2012,07,14,07,31,0.00
2012,07,14,07,32,0.10
2012,07,14,07,33,0.30
2012,07,14,07,34,0.20
2012,07,14,07,35,0.00
2012,07,14,07,36,1.60
2012,07,14,07,37,0.10
2012,07,14,07,38,0.00
2012,07,14,07,39,0.20
2012,07,14,07,40,0.20
2012,07,14,07,41,0.00
2012,07,14,07,42,0.00
2012,07,14,07,43,0.00
2012,07,14,07,44,0.00
2012,07,14,07,45,0.00
2012,07,14,07,46,0.00
2012,07,14,07,47,0.00
2012,07,14,07,48,0.90
2012,07,14,07,49,0.10
2012,07,14,07,50,0.00
2012,07,14,07,51,0.30
2012,07,14,07,52,0.80
2012,07,14,07,53,1.30
2012,07,14,07,54,0.10
2012,07,14,07,55,0.20
2012,07,14,07,56,0.50
2012,07,14,07,57,0.60
2012,07,14,07,58,0.00
2012,07,14,07,59,0.30
2012,07,14,08,00,0.00
2012,07,14,08,01,0.60
2012,07,14,08,02,0.00
2012,07,14,08,03,0.00
2012,07,14,08,04,0.20
2012,07,14,08,05,0.20
2012,07,14,08,06,1.20
2012,07,14,08,07,1.00
2012,07,14,08,08,0.50
2012,07,14,08,09,0.80
2012,07,14,08,10,0.20
2012,07,14,08,11,0.30
2012,07,14,08,12,1.10
2012,07,14,08,13,2.20
2012,07,14,08,14,1.00
2012,07,14,08,15,0.90
2012,07,14,08,16,0.10
2012,07,14,08,17,0.00
2012,07,14,08,18,0.00
2012,07,14,08,19,0.00
2012,07,14,08,20,0.00
2012,07,14,08,21,0.00
2012,07,14,08,22,0.20
2012,07,14,08,23,0.00
2012,07,14,08,24,0.00
2012,07,14,08,25,0.00
2012,07,14,08,26,0.00
2012,07,14,08,27,0.00
2012,07,14,08,28,0.20
2012,07,14,08,29,0.00
2012,07,14,08,30,0.00
2012,07,14,08,31,0.00
2012,07,14,08,32,0.00
2012,07,14,08,33,1.30
2012,07,14,08,34,3.10
2012,07,14,08,35,5.30
2012,07,14,08,36,5.50
2012,07,14,08,37,7.20
2012,07,14,08,38,5.10
2012,07,14,08,39,6.20
2012,07,14,08,40,1.90
2012,07,14,08,41,3.20
2012,07,14,08,42,1.60
2012,07,14,08,43,3.50
2012,07,14,08,44,2.90
2012,07,14,08,45,2.90
2012,07,14,08,46,4.00
2012,07,14,08,47,4.90
2012,07,14,08,48,6.70
2012,07,14,08,49,4.10
2012,07,14,08,50,2.80
2012,07,14,08,51,2.90
2012,07,14,08,52,3.20
2012,07,14,08,53,4.50
2012,07,14,08,54,2.70
2012,07,14,08,55,1.60
2012,07,14,08,56,2.60
2012,07,14,08,57,2.40
2012,07,14,08,58,1.90
2012,07,14,08,59,3.00
2012,07,14,09,00,3.10
2012,07,14,09,01,1.40
2012,07,14,09,02,1.90
2012,07,14,09,03,4.00
2012,07,14,09,04,6.40
2012,07,14,09,05,4.40
2012,07,14,09,06,4.30
2012,07,14,09,07,1.90
2012,07,14,09,08,3.50
2012,07,14,09,09,2.70
2012,07,14,09,10,4.60
2012,07,14,09,11,2.40
2012,07,14,09,12,3.40
2012,07,14,09,13,3.60
2012,07,14,09,14,6.80
2012,07,14,09,15,5.30
2012,07,14,09,16,3.00
2012,07,14,09,17,4.90
2012,07,14,09,18,6.50
2012,07,14,09,19,3.00
2012,07,14,09,20,5.90
2012,07,14,09,21,5.60
2012,07,14,09,22,6.30
2012,07,14,09,23,5.60
2012,07,14,09,24,5.10
2012,07,14,09,25,3.50
2012,07,14,09,26,7.50
2012,07,14,09,27,5.80
2012,07,14,09,28,4.80
2012,07,14,09,29,5.80
2012,07,14,09,30,5.50
2012,07,14,09,31,7.50
2012,07,14,09,32,6.90
2012,07,14,09,33,4.30
2012,07,14,09,34,4.20
2012,07,14,09,35,4.80
2012,07,14,09,36,5.10
2012,07,14,09,37,2.40
2012,07,14,09,38,1.30
2012,07,14,09,39,5.80
2012,07,14,09,40,3.30
2012,07,14,09,41,2.20
2012,07,14,09,42,2.00
2012,07,14,09,43,3.20
2012,07,14,09,44,0.90
2012,07,14,09,45,2.00
2012,07,14,09,46,0.20
2012,07,14,09,47,0.50
2012,07,14,09,48,0.60
2012,07,14,09,49,0.60
2012,07,14,09,50,3.60
2012,07,14,09,51,4.80
2012,07,14,09,52,6.30
2012,07,14,09,53,7.20
2012,07,14,09,54,1.80
2012,07,14,09,55,1.20
2012,07,14,09,56,4.20
2012,07,14,09,57,1.80
2012,07,14,09,58,3.50
2012,07,14,09,59,0.40
2012,07,14,10,00,4.10
2012,07,14,10,01,3.20
2012,07,14,10,02,1.90
2012,07,14,10,03,0.30
2012,07,14,10,04,0.30
2012,07,14,10,05,2.10
2012,07,14,10,06,3.60
2012,07,14,10,07,0.50
2012,07,14,10,08,3.10
2012,07,14,10,09,0.80
2012,07,14,10,10,1.50
2012,07,14,10,11,4.10
2012,07,14,10,12,5.10
2012,07,14,10,13,2.10
2012,07,14,10,14,3.60
2012,07,14,10,15,1.20
2012,07,14,10,16,2.30
2012,07,14,10,17,3.20
2012,07,14,10,18,1.70
2012,07,14,10,19,1.90
2012,07,14,10,20,2.80
2012,07,14,10,21,1.40
2012,07,14,10,22,3.40
2012,07,14,10,23,3.10
2012,07,14,10,24,5.20
2012,07,14,10,25,5.20
2012,07,14,10,26,4.30
2012,07,14,10,27,2.70
2012,07,14,10,28,3.80
2012,07,14,10,29,4.60
2012,07,14,10,30,3.40
2012,07,14,10,31,2.80
2012,07,14,10,32,3.10
2012,07,14,10,33,2.80
2012,07,14,10,34,2.50
2012,07,14,10,35,2.60
2012,07,14,10,36,2.50
2012,07,14,10,37,3.00
2012,07,14,10,38,2.10
2012,07,14,10,39,2.60
2012,07,14,10,40,1.60
2012,07,14,10,41,2.40
2012,07,14,10,42,1.90
2012,07,14,10,43,4.30
2012,07,14,10,44,3.40
2012,07,14,10,45,1.60
2012,07,14,10,46,2.20
2012,07,14,10,47,3.20
2012,07,14,10,48,3.40
2012,07,14,10,49,1.30
2012,07,14,10,50,3.40
2012,07,14,10,51,4.70
2012,07,14,10,52,3.70
2012,07,14,10,53,3.90
2012,07,14,10,54,3.20
2012,07,14,10,55,3.70
2012,07,14,10,56,7.10
2012,07,14,10,57,5.10
2012,07,14,10,58,6.70
2012,07,14,10,59,3.60
2012,07,14,11,00,5.30
2012,07,14,11,01,4.10
2012,07,14,11,02,4.70
2012,07,14,11,03,5.00
2012,07,14,11,04,3.50
2012,07,14,11,05,4.80
2012,07,14,11,06,3.10
2012,07,14,11,07,4.80
2012,07,14,11,08,6.20
2012,07,14,11,09,7.20
2012,07,14,11,10,7.70
2012,07,14,11,11,5.80
2012,07,14,11,12,5.80
2012,07,14,11,13,6.80
2012,07,14,11,14,6.90
2012,07,14,11,15,5.10
2012,07,14,11,16,4.20
2012,07,14,11,17,3.40
2012,07,14,11,18,2.70
2012,07,14,11,19,3.20
2012,07,14,11,20,3.40
2012,07,14,11,21,4.10
2012,07,14,11,22,4.50
2012,07,14,11,23,5.90
2012,07,14,11,24,5.10
2012,07,14,11,25,5.20
2012,07,14,11,26,6.90
2012,07,14,11,27,5.10
2012,07,14,11,28,7.70
2012,07,14,11,29,6.00
2012,07,14,11,30,5.40
2012,07,14,11,31,3.80
2012,07,14,11,32,9.10
2012,07,14,11,33,6.50
2012,07,14,11,34,4.10
2012,07,14,11,35,4.70
2012,07,14,11,36,8.00
2012,07,14,11,37,4.10
2012,07,14,11,38,4.40
2012,07,14,11,39,5.60
2012,07,14,11,40,3.10
2012,07,14,11,41,3.20
2012,07,14,11,42,4.10
2012,07,14,11,43,7.40
2012,07,14,11,44,3.50
2012,07,14,11,45,3.40
2012,07,14,11,46,6.40
2012,07,14,11,47,5.60
2012,07,14,11,48,5.30
2012,07,14,11,49,6.10
2012,07,14,11,50,8.90
2012,07,14,11,51,7.50
2012,07,14,11,52,4.20
2012,07,14,11,53,3.20
2012,07,14,11,54,3.80
2012,07,14,11,55,5.60
2012,07,14,11,56,5.10
2012,07,14,11,57,4.30
2012,07,14,11,58,7.40
2012,07,14,11,59,7.20
2012,07,14,12,00,5.40
2012,07,14,12,01,5.60
2012,07,14,12,02,6.10
2012,07,14,12,03,4.70
2012,07,14,12,04,8.20
2012,07,14,12,05,4.70
2012,07,14,12,06,4.80
2012,07,14,12,07,2.70
2012,07,14,12,08,5.30
2012,07,14,12,09,8.20
2012,07,14,12,10,6.10
2012,07,14,12,11,6.00
2012,07,14,12,12,6.10
2012,07,14,12,13,3.70
2012,07,14,12,14,6.30
2012,07,14,12,15,7.70
2012,07,14,12,16,3.40
2012,07,14,12,17,4.80
2012,07,14,12,18,5.60
2012,07,14,12,19,4.60
2012,07,14,12,20,5.80
2012,07,14,12,21,8.00
2012,07,14,12,22,8.90
2012,07,14,12,23,3.10
2012,07,14,12,24,2.70
2012,07,14,12,25,5.10
2012,07,14,12,26,5.70
2012,07,14,12,27,4.40
2012,07,14,12,28,4.20
2012,07,14,12,29,6.60
2012,07,14,12,30,4.80
2012,07,14,12,31,1.80
2012,07,14,12,32,1.90
2012,07,14,12,33,2.30
2012,07,14,12,34,3.50
2012,07,14,12,35,5.80
2012,07,14,12,36,2.20
2012,07,14,12,37,6.40
2012,07,14,12,38,2.80
2012,07,14,12,39,4.10
2012,07,14,12,40,1.90
2012,07,14,12,41,1.40
2012,07,14,12,42,3.10
2012,07,14,12,43,4.00
2012,07,14,12,44,4.20
2012,07,14,12,45,4.00
2012,07,14,12,46,5.40
2012,07,14,12,47,1.40
2012,07,14,12,48,3.10
2012,07,14,12,49,3.80
2012,07,14,12,50,2.70
2012,07,14,12,51,2.80
2012,07,14,12,52,5.90
2012,07,14,12,53,4.00
2012,07,14,12,54,4.40
2012,07,14,12,55,4.30
2012,07,14,12,56,6.90
2012,07,14,12,57,3.30
2012,07,14,12,58,2.50
2012,07,14,12,59,3.60
2012,07,14,13,00,5.60
2012,07,14,13,01,3.50
2012,07,14,13,02,6.40
2012,07,14,13,03,5.80
2012,07,14,13,04,4.80
2012,07,14,13,05,4.10
2012,07,14,13,06,4.00
2012,07,14,13,07,3.70
2012,07,14,13,08,3.70
2012,07,14,13,09,2.10
2012,07,14,13,10,5.20
2012,07,14,13,11,3.90
2012,07,14,13,12,5.90
2012,07,14,13,13,5.80
2012,07,14,13,14,5.80
2012,07,14,13,15,6.00
2012,07,14,13,16,7.30
2012,07,14,13,17,7.60
2012,07,14,13,18,4.70
2012,07,14,13,19,6.00
2012,07,14,13,20,6.50
2012,07,14,13,21,5.60
2012,07,14,13,22,4.90
2012,07,14,13,23,3.20
2012,07,14,13,24,2.70
2012,07,14,13,25,2.30
2012,07,14,13,26,3.50
2012,07,14,13,27,4.30
2012,07,14,13,28,2.70
2012,07,14,13,29,3.80
2012,07,14,13,30,7.20
2012,07,14,13,31,7.80
2012,07,14,13,32,6.40
2012,07,14,13,33,5.10
2012,07,14,13,34,4.20
2012,07,14,13,35,9.10
2012,07,14,13,36,8.50
2012,07,14,13,37,11.20
2012,07,14,13,38,7.40
2012,07,14,13,39,6.40
2012,07,14,13,40,7.70
2012,07,14,13,41,8.00
2012,07,14,13,42,3.30
2012,07,14,13,43,5.60
2012,07,14,13,44,6.70
2012,07,14,13,45,8.10
2012,07,14,13,46,3.40
2012,07,14,13,47,7.80
2012,07,14,13,48,8.40
2012,07,14,13,49,7.00
2012,07,14,13,50,8.20
2012,07,14,13,51,6.40
2012,07,14,13,52,5.10
2012,07,14,13,53,8.50
2012,07,14,13,54,7.80
2012,07,14,13,55,9.00
2012,07,14,13,56,7.80
2012,07,14,13,57,8.50
2012,07,14,13,58,7.80
2012,07,14,13,59,6.20
2012,07,14,14,00,7.10
2012,07,14,14,01,10.50
2012,07,14,14,02,10.00
2012,07,14,14,03,6.00
2012,07,14,14,04,7.40
2012,07,14,14,05,9.10
2012,07,14,14,06,5.30
2012,07,14,14,07,4.20
2012,07,14,14,08,8.30
2012,07,14,14,09,7.60
2012,07,14,14,10,8.10
2012,07,14,14,11,4.40
2012,07,14,14,12,8.50
2012,07,14,14,13,6.50
2012,07,14,14,14,4.40
2012,07,14,14,15,6.80
2012,07,14,14,16,4.90
2012,07,14,14,17,6.20
2012,07,14,14,18,11.30
2012,07,14,14,19,6.70
2012,07,14,14,20,6.90
2012,07,14,14,21,12.50
2012,07,14,14,22,14.40
2012,07,14,14,23,10.10
2012,07,14,14,24,8.80
2012,07,14,14,25,5.80
2012,07,14,14,26,8.50
2012,07,14,14,27,7.30
2012,07,14,14,28,9.90
2012,07,14,14,29,11.00
2012,07,14,14,30,10.60
2012,07,14,14,31,9.10
2012,07,14,14,32,7.70
2012,07,14,14,33,6.60
2012,07,14,14,34,6.90
2012,07,14,14,35,8.20
2012,07,14,14,36,10.40
2012,07,14,14,37,7.40
2012,07,14,14,38,6.10
2012,07,14,14,39,4.90
2012,07,14,14,40,5.30
2012,07,14,14,41,5.80
2012,07,14,14,42,6.60
2012,07,14,14,43,7.60
2012,07,14,14,44,9.90
2012,07,14,14,45,11.30
2012,07,14,14,46,10.00
2012,07,14,14,47,7.00
2012,07,14,14,48,10.00
2012,07,14,14,49,6.90
2012,07,14,14,50,12.10
2012,07,14,14,51,7.40
2012,07,14,14,52,8.30
2012,07,14,14,53,10.30
2012,07,14,14,54,9.90
2012,07,14,14,55,8.00
2012,07,14,14,56,5.60
2012,07,14,14,57,5.90
2012,07,14,14,58,6.40
2012,07,14,14,59,8.60
2012,07,14,15,00,8.90
2012,07,14,15,01,8.60
2012,07,14,15,02,10.50
2012,07,14,15,03,9.80
2012,07,14,15,04,5.70
2012,07,14,15,05,7.40
2012,07,14,15,06,7.70
2012,07,14,15,07,7.50
2012,07,14,15,08,15.30
2012,07,14,15,09,9.20
2012,07,14,15,10,10.80
2012,07,14,15,11,4.20
2012,07,14,15,12,10.20
2012,07,14,15,13,5.50
2012,07,14,15,14,6.60
2012,07,14,15,15,8.00
2012,07,14,15,16,8.80
2012,07,14,15,17,9.20
2012,07,14,15,18,10.90
2012,07,14,15,19,7.50
2012,07,14,15,20,7.60
2012,07,14,15,21,9.00
2012,07,14,15,22,13.80
2012,07,14,15,23,17.00
2012,07,14,15,24,9.90
2012,07,14,15,25,7.70
2012,07,14,15,26,4.00
2012,07,14,15,27,7.50
2012,07,14,15,28,11.70
2012,07,14,15,29,13.90
2012,07,14,15,30,9.10
2012,07,14,15,31,10.90
2012,07,14,15,32,10.10
2012,07,14,15,33,12.70
2012,07,14,15,34,14.20
2012,07,14,15,35,12.50
2012,07,14,15,36,10.90
2012,07,14,15,37,12.10
2012,07,14,15,38,11.20
2012,07,14,15,39,9.20
2012,07,14,15,40,9.80
2012,07,14,15,41,10.30
2012,07,14,15,42,8.10
2012,07,14,15,43,7.70
2012,07,14,15,44,12.30
2012,07,14,15,45,13.50
2012,07,14,15,46,13.80
2012,07,14,15,47,14.30
2012,07,14,15,48,9.00
2012,07,14,15,49,7.00
2012,07,14,15,50,10.20
2012,07,14,15,51,13.40
2012,07,14,15,52,10.60
2012,07,14,15,53,11.30
2012,07,14,15,54,8.00
2012,07,14,15,55,7.20
2012,07,14,15,56,8.10
2012,07,14,15,57,8.90
2012,07,14,15,58,2.60
2012,07,14,15,59,8.40
2012,07,14,16,00,7.60
2012,07,14,16,01,6.20
2012,07,14,16,02,7.70
2012,07,14,16,03,9.20
2012,07,14,16,04,8.30
2012,07,14,16,05,7.90
2012,07,14,16,06,12.30
2012,07,14,16,07,11.10
2012,07,14,16,08,9.30
2012,07,14,16,09,8.20
2012,07,14,16,10,12.00
2012,07,14,16,11,13.00
2012,07,14,16,12,10.90
2012,07,14,16,13,16.00
2012,07,14,16,14,10.70
2012,07,14,16,15,7.70
2012,07,14,16,16,9.80
2012,07,14,16,17,9.80
2012,07,14,16,18,5.90
2012,07,14,16,19,4.80
2012,07,14,16,20,8.10
2012,07,14,16,21,7.00
2012,07,14,16,22,12.00
2012,07,14,16,23,12.40
2012,07,14,16,24,10.10
2012,07,14,16,25,11.70
2012,07,14,16,26,9.60
2012,07,14,16,27,11.30
2012,07,14,16,28,13.20
2012,07,14,16,29,15.30
2012,07,14,16,30,14.10
2012,07,14,16,31,11.90
2012,07,14,16,32,12.50
2012,07,14,16,33,9.80
2012,07,14,16,34,13.00
2012,07,14,16,35,9.90
2012,07,14,16,36,17.30
2012,07,14,16,37,15.60
2012,07,14,16,38,15.90
2012,07,14,16,39,16.00
2012,07,14,16,40,11.70
2012,07,14,16,41,8.10
2012,07,14,16,42,7.70
2012,07,14,16,43,8.30
2012,07,14,16,44,12.40
2012,07,14,16,45,8.40
2012,07,14,16,46,5.50
2012,07,14,16,47,8.00
2012,07,14,16,48,11.50
2012,07,14,16,49,12.50
2012,07,14,16,50,8.20
2012,07,14,16,51,10.80
2012,07,14,16,52,10.70
2012,07,14,16,53,7.80
2012,07,14,16,54,8.80
2012,07,14,16,55,10.90
2012,07,14,16,56,8.70
2012,07,14,16,57,8.80
2012,07,14,16,58,10.30
2012,07,14,16,59,11.10
2012,07,14,17,00,8.00
2012,07,14,17,01,9.90
2012,07,14,17,02,6.50
2012,07,14,17,03,7.60
2012,07,14,17,04,7.40
2012,07,14,17,05,6.30
2012,07,14,17,06,9.20
2012,07,14,17,07,9.80
2012,07,14,17,08,11.80
2012,07,14,17,09,13.90
2012,07,14,17,10,10.50
2012,07,14,17,11,9.10
2012,07,14,17,12,6.30
2012,07,14,17,13,9.70
2012,07,14,17,14,10.90
2012,07,14,17,15,8.60
2012,07,14,17,16,7.10
2012,07,14,17,17,11.60
2012,07,14,17,18,12.70
2012,07,14,17,19,9.40
2012,07,14,17,20,11.70
2012,07,14,17,21,11.80
2012,07,14,17,22,13.50
2012,07,14,17,23,14.00
2012,07,14,17,24,16.40
2012,07,14,17,25,12.20
2012,07,14,17,26,17.90
2012,07,14,17,27,14.10
2012,07,14,17,28,15.00
2012,07,14,17,29,14.60
2012,07,14,17,30,13.30
2012,07,14,17,31,11.90
2012,07,14,17,32,8.30
2012,07,14,17,33,8.50
2012,07,14,17,34,11.50
2012,07,14,17,35,18.00
2012,07,14,17,36,19.20
2012,07,14,17,37,17.80
2012,07,14,17,38,18.60
2012,07,14,17,39,17.20
2012,07,14,17,40,13.90
2012,07,14,17,41,15.70
2012,07,14,17,42,15.00
2012,07,14,17,43,13.30
2012,07,14,17,44,13.80
2012,07,14,17,45,12.00
2012,07,14,17,46,12.70
2012,07,14,17,47,13.50
2012,07,14,17,48,11.00
2012,07,14,17,49,11.40
2012,07,14,17,50,14.40
2012,07,14,17,51,8.40
2012,07,14,17,52,8.00
2012,07,14,17,53,13.50
2012,07,14,17,54,8.00
2012,07,14,17,55,10.10
2012,07,14,17,56,11.80
2012,07,14,17,57,13.60
2012,07,14,17,58,10.80
2012,07,14,17,59,12.10
2012,07,14,18,00,11.00
2012,07,14,18,01,11.70